{"data":{"norad_id":56342,"epoch":"2026-09-20T22:30:18.032544Z","epoch_age_seconds":70714,"freshness":"FRESH","line1":"1 56342U 23058AB  26263.93770871  .00000766  00000+0  26063-4 0  9998","line2":"2 56342  97.2842 260.7090 0001473 100.7664 259.3744 15.33438742187704","mean_motion":15.33438742,"eccentricity":0.0001473,"inclination_deg":97.2842,"raan_deg":260.709,"arg_perigee_deg":100.7664,"mean_anomaly_deg":259.3744,"bstar":2.6063e-5,"rev_number":18770,"period_min":93.906587890291,"perigee_km":464.55371711423,"apogee_km":466.56987077892,"semimajor_km":6843.6987939466,"source":"CELESTRAK","updated_at":"2026-09-21T09:00:33.405497Z"}}